User: anonymous   Login
Location: Go?cza
(50.3372°N, 19.9313°E)
Time: 06:36:45
(UTC+00:00)
Language:

DELTA 2 R/B (1) - Orbit

View from above orbital plane
View from above orbital plane
View from above satellite
View from above satellite

Ground track
Ground track

The orbit data is extracted from the following two-line orbital elements,

1 27665U 03005C   24202.81117131  .00000373  00000-0  17912-3 0  9993
2 27665  39.5740 236.0229 0008646 195.7073 332.9915 14.29045849121367
Epoch (UTC): 20 July 2024 19:28:05
Eccentricity: 0.0008646
inclination: 39.5740°
perigee height: 789 km
apogee height: 801 km
right ascension of ascending node: 236.0229°
argument of perigee: 195.7073°
revolutions per day: 14.29045849
mean anomaly at epoch: 332.9915°
orbit number at epoch: 12136

The dashed part of the orbit path shows where the satellite is in the earth's shadow,  

DLR